Location: Glendale
(37.4556°N, 88.6714°W)
Time: 05:29:28
(UTC+00:00)

Daily predictions for brighter satellites

Satellite Brightness Start Highest point End
(mag) Time Altitude Azimuth Time Altitude Azimuth Time Altitude Azimuth
CSL-04 Rocket 3.8 00:00:36 10° SE 00:05:35 44° ENE 00:10:35 10° N
Cosmos 292 Rocket 4.1 00:02:29 10° N 00:07:06 42° ENE 00:11:41 10° SE
Cosmos 1703 Rocket 3.5 00:03:25 10° S 00:07:51 70° E 00:11:39 14° NNE
Aureole 1 Rocket 1.9 00:06:01 10° SSW 00:09:02 88° E 00:09:35 55° NNE
BREEZE-M DEB (TANK) 1.6 00:06:51 10° NW 00:08:59 82° NW 00:08:59 82° NW
Cosmos 1627 Rocket 4.4 00:03:41 10° S 00:09:44 68° E 00:15:48 10° NNE
Okean-O 3.3 00:06:08 10° S 00:10:29 57° W 00:14:53 10° NNW
Shenzhou-11 Module 3.7 00:12:09 10° WNW 00:13:45 22° NNW 00:13:45 22° NNW
Cosmos 1666 2.4 00:11:01 10° N 00:14:46 81° E 00:18:29 10° S
CSL-04 Debris 4.1 00:12:49 10° SSE 00:18:11 61° ENE 00:23:34 10° N
OAO 3 Rocket 3.4 00:16:20 10° WSW 00:20:58 58° S 00:22:19 42° ESE
Cosmos 2195 Rocket 4.5 00:16:21 10° S 00:22:33 86° W 00:28:51 10° N
FengYun 1-2 T 4.3 00:19:06 10° S 00:24:34 77° WSW 00:30:05 10° NNW
Cosmos 1092 Rocket 4.4 00:22:06 10° SSW 00:28:22 64° W 00:34:37 10° N
Cosmos 1174 4.2 00:23:54 10° SSW 00:29:28 76° ESE 00:30:27 55° NE
ISS -2.1 00:27:03 10° NW 00:28:44 25° NNW 00:28:44 25° NNW
OAO 2 Rocket 3.4 00:25:36 10° WSW 00:30:35 66° S 00:31:44 50° ESE
Envisat 4.2 00:27:43 10° S 00:32:31 43° W 00:37:21 10° NNW
STARLINK-60 4.3 00:29:53 10° WSW 00:32:56 35° NW 00:32:56 35° NW
Cosmos 614 Rocket 3.8 00:32:14 10° SSW 00:37:20 84° ESE 00:38:39 51° NNE
NOAA 11 4.0 00:32:31 10° SSE 00:37:54 69° ENE 00:43:20 10° N
Cosmos 407 Rocket 3.4 00:38:36 10° SSW 00:43:45 89° WNW 00:44:58 54° NNE
COSMO-SKYMED 1 4.3 00:41:37 10° N 00:45:26 30° WNW 00:49:13 10° SW
Cosmos 2278 Rocket 3.4 00:41:12 10° NW 00:46:29 41° WSW 00:51:43 10° S
Cosmos 1140 Rocket 3.5 00:43:14 10° S 00:47:36 60° SSE 00:47:36 60° SSE
YAOGAN 1 3.1 00:45:56 10° S 00:50:10 57° W 00:54:27 10° NNW
Meteor 1-19 Rocket 4.0 00:44:40 10° S 00:49:57 69° ESE 00:49:57 69° ESE
Geosat 4.3 00:55:30 53° S 00:55:30 53° S 00:59:28 10° SSW
SL-16 R/B 2.4 00:50:21 10° SSW 00:55:59 68° WNW 00:57:41 45° N
CZ-3B R/B 4.4 00:54:12 10° S 00:59:10 18° SE 00:59:10 18° SE
Atlas Centaur 2 4.4 00:57:34 10° W 01:04:31 31° SSW 01:09:28 18° SSE
CZ-4 R/B 3.6 01:03:44 10° SSW 01:06:59 24° W 01:10:12 10° NW
Cosmos 2237 Rocket 4.4 01:04:56 10° WSW 01:09:05 20° NW 01:13:14 10° N
Cosmos 1553 Rocket 4.1 01:12:09 10° N 01:18:29 73° W 01:24:52 10° S
CZ-4C R/B 4.2 09:42:44 29° NNE 09:44:44 33° NE 09:51:57 10° ESE
SL-16 R/B 3.4 09:52:58 39° E 09:52:58 39° E 09:57:36 10° SE
Lacrosse 5 3.5 10:00:37 30° ESE 10:00:37 30° ESE 10:03:14 10° SE
USA 234 4.0 09:54:45 10° NE 09:59:00 42° NNE 09:59:00 42° NNE
Cosmos 2237 Rocket 4.5 10:09:42 12° S 10:09:42 12° S 10:10:10 10° S
Cosmos 2056 Rocket 4.2 10:15:00 49° ESE 10:15:11 49° ESE 10:20:06 10° NNE
Centaur D AC-28 4.2 10:23:56 29° SSW 10:26:15 34° S 10:49:24 10° SE
COBE Rocket 3.8 10:33:29 10° SSE 10:38:24 82° ENE 10:38:27 82° ENE
Cosmos 2263 Rocket 3.7 10:33:24 10° S 10:38:26 36° ESE 10:43:28 10° NE
STARLINK-76 4.4 10:48:37 44° SSE 10:48:37 44° SSE 10:51:30 10° SE
STARLINK 4.3 10:50:10 44° SSE 10:50:10 44° SSE 10:53:06 10° SE
STARLINK-32 4.3 10:51:47 44° S 10:51:47 44° S 10:54:46 10° SE
Aureole 1 Rocket 4.0 10:51:37 52° W 10:51:57 53° WSW 10:58:49 10° S
STARLINK-40 4.2 10:53:21 45° S 10:53:21 45° S 10:56:22 10° SSE
STARLINK-44 4.2 10:54:59 45° S 10:54:59 45° S 10:58:03 10° SSE
STARLINK-41 4.1 10:55:25 47° S 10:55:25 47° S 10:58:38 10° SSE
STARLINK-37 4.3 10:55:49 43° S 10:55:49 43° S 10:58:54 10° SSE
Meteor 2-11 Rocket 4.3 10:48:57 10° SSW 10:55:00 70° W 11:01:06 10° N
Cosmos 2034 Rocket 3.9 10:49:38 10° SSW 10:55:53 70° W 11:02:15 10° N
STARLINK-64 4.1 10:57:00 46° S 10:57:00 46° S 11:00:15 10° SSE
STARLINK-36 4.2 10:58:08 44° S 10:58:08 44° S 11:01:17 10° SSE
STARLINK-35 4.2 11:02:54 42° SSW 11:02:54 42° SSW 11:06:10 10° SSE
STARLINK-51 4.2 11:04:30 41° SSW 11:04:30 41° SSW 11:07:48 10° SSE
Cosmos 614 Rocket 3.8 11:02:55 41° NNW 11:04:39 73° WSW 11:09:43 10° S
STARLINK-30 4.2 11:06:07 40° SSW 11:06:07 40° SSW 11:09:27 10° SSE
STARLINK 4.0 11:06:18 47° SW 11:06:18 47° SW 11:09:58 10° SSE
STARLINK-33 4.2 11:07:43 39° SSW 11:07:43 39° SSW 11:11:04 10° SSE
Cosmos 1371 Rocket 4.4 11:08:38 40° NW 11:08:38 40° NW 11:12:54 10° N
CZ-4B R/B 4.4 11:02:48 10° NNE 11:08:11 46° E 11:13:34 10° S
Meteor 1-25 Rocket 4.5 11:03:15 10° S 11:08:45 69° E 11:14:21 10° NNE
STARLINK-50 4.3 11:09:17 38° SW 11:09:17 38° SW 11:12:40 10° SSE
FENGYUN 3A 4.1 11:04:52 10° NNE 11:10:13 64° E 11:15:32 10° S
STARLINK-56 4.3 11:12:27 36° SW 11:12:27 36° SW 11:15:53 10° SSE
Cosmos 407 Rocket 3.5 11:10:58 31° NW 11:13:27 64° WSW 11:18:44 10° S
Starlink (trailer) 4.4 11:14:05 34° SW 11:14:05 34° SW 11:17:34 10° SSE
Cosmos 1933 Rocket 3.6 11:10:07 10° SSW 11:14:19 50° W 11:18:31 10° N
STARLINK-38 4.4 11:15:39 33° SW 11:15:39 33° SW 11:19:08 10° SSE
Okean 1-7 3.7 11:12:18 10° N 11:16:38 54° E 11:20:55 10° SSE
Cosmos 1140 Rocket 3.4 11:12:53 19° NNW 11:16:40 88° WSW 11:21:53 10° SSE
STARLINK-65 4.4 11:17:14 32° SW 11:17:14 32° SW 11:20:45 10° SSE
PAYLOAD B 4.3 11:12:42 10° NNE 11:18:14 77° ESE 11:23:45 10° S
GEOS 3 Rocket 3.5 11:14:05 10° SSE 11:19:07 66° WSW 11:21:45 29° NW
Cosmos 1943 4.1 11:17:45 10° N 11:23:11 47° ENE 11:28:33 10° SE
Cosmos 1461 3.4 11:23:03 20° NNW 11:25:51 61° ENE 11:30:13 10° SE
Cosmos 1092 Rocket 3.9 11:20:15 10° N 11:26:26 85° W 11:32:33 10° S
Okean 1 4.4 11:23:04 10° N 11:26:54 45° E 11:30:42 10° SSE
Cosmos 1023 Rocket 4.4 11:24:29 18° NNW 11:28:21 67° WSW 11:33:33 10° S
CZ-4C R/B 3.1 11:27:57 18° NW 11:33:47 63° WSW 11:42:01 10° SSE
Helios 1A Rocket 2.9 11:30:31 10° NNE 11:34:34 81° ESE 11:38:35 10° S
SL-16 R/B 3.2 11:34:55 24° W 11:36:08 26° WSW 11:40:42 10° SSW
METEOR-M 4.0 11:31:57 10° N 11:37:17 69° WNW 11:42:34 10° SSW
COSMO-SKYMED 1 2.7 11:33:56 10° S 11:38:08 49° W 11:41:58 12° NNW
Lacrosse 5 3.4 11:39:52 17° WSW 11:40:43 18° WSW 11:44:06 10° SSW
Cosmos 2084 Rocket 3.4 11:37:42 19° NW 11:40:50 86° WSW 11:45:13 10° SSE
Cosmos 1340 2.9 11:37:43 10° S 11:41:26 69° E 11:45:11 10° NNE
Cosmos 1603 3.7 11:37:05 10° NNW 11:42:51 87° WSW 11:48:32 10° SSE
SWAS 4.3 11:38:47 10° SSW 11:43:04 80° WNW 11:47:25 10° NNE
Cosmos 1602 3.6 11:39:24 10° S 11:43:13 80° W 11:47:03 10° N
USA 234 4.4 11:38:26 10° NNE 11:43:21 23° NNW 11:46:22 17° WNW
ALOS 2.4 11:39:26 10° N 11:43:59 52° WNW 11:48:30 10° SSW
USA 116 3.9 11:41:50 10° S 11:45:57 70° WSW 11:50:39 10° NNW
Okean O Rocket 1.5 11:44:04 10° N 11:48:25 65° WNW 11:52:46 10° SSW
FALCON 9 DEB 4.3 11:50:11 14° N 11:51:28 20° NE 11:53:20 10° E
Cosmos 1484 Rocket 4.1 11:51:38 10° NNW 11:54:25 19° WNW 11:57:12 10° WSW
